星链-32913 (STARLINK-32913)

导读

STARLINK-32913是美国SpaceX星链卫星互联网项目的成员,于2025年2月23日发射。星链计划旨在构建全球卫星互联网星座,为全球偏远地区及地面网络覆盖不足区域提供低延迟高速网络服务,该卫星的入轨进一步扩充了星链星座的在轨规模,提升了星座服务的覆盖能力和网络容量。

基本信息
目录编号:
63098
目录名称:
STARLINK-32913
国际标识:
2025-037X
轨道中心:
EARTH
卫星名称:
星链-32913
卫星全名:
星链-32913 (STARLINK-32913)
卫星状态:
在轨 (已飞行558 天)
发射日期:
2025-02-23 UTC
国别 :
美国 (US)
星等 :
--
轨道信息
数据来源 国际轨道数据
星历时间: 2026-09-04T14:00:02+0800
12小时前
查看轨道信息
半长轴: 6876.66km
偏心率: 0.0003043
轨道倾角: 70.001°
近地点辐角 242.247°
升交点赤经 263.859°
平近点角 296.125°
近地点: 496.43km
远地点: 500.616km
周期: 94.586分钟
每日圈数: 15.224271
详细信息
固有亮度:
5
最大亮度:
2.5
卫星平台:
Starlink V1.0
覆盖范围:
全球
运营商:
太空探索技术公司
运营商所在国:
美国
制造商(研发单位):
太空探索技术公司
制造商所在国:
美国
使用方式:
暂无
卫星简介
Starlink 计划是 SpaceX 推出的全球卫星互联网项目,通过发射低轨道卫星,为全球尤其是偏远地区提供高速、低延迟的互联网服务。自 2019 年起,Starlink 已部署数千颗卫星,旨在缩小全球数字鸿沟,推动互联网普及。该项目还为军事、航空等行业提供通信支持,带来广泛经济效益。
2D轨道图
3D轨道图
轨道高度分析图
轨道倾角分析图
轨道综合分析图
查看轨道综合分析图
交会数据列表
事件ID 空间交会对象 最接近时刻(TCA) 交会距离 交会风险概率(CRP) 交会风险指数(CRI) 操作
CDM_260905-080105-945706-309821
2026-09-05T
08:01:19+0000
0.507 km
远距离
1.809146E-4 高风险 0.8
CDM_260905-080406-309806-379921
2026-09-05T
08:04:56+0000
0.830 km
远距离
4.405945E-5 中风险 0.68
CDM_260905-074606-193306-309821
2026-09-05T
07:46:24+0000
0.998 km
远距离
1.935695E-5 中风险 0.61
CDM_260905-134004-837306-309821
2026-09-05T
13:40:23+0000
1.406 km
极远距离
3.600681E-6 低风险 0.46
CDM_260905-063006-309806-379921
2026-09-05T
06:30:44+0000
1.829 km
极远距离
3.201274E-6 低风险 0.45
CDM_260905-094405-486506-309821
2026-09-05T
09:44:43+0000
1.742 km
极远距离
2.854999E-6 低风险 0.44
CDM_260906-073206-042506-309821
2026-09-06T
07:32:30+0000
1.970 km
极远距离
2.779543E-6 低风险 0.44
CDM_260905-081005-486506-309821
2026-09-05T
08:10:31+0000
1.966 km
极远距离
2.059034E-6 低风险 0.41
CDM_260905-194806-309806-889621
2026-09-05T
19:48:00+0000
2.445 km
极远距离
1.854955E-6 低风险 0.4
CDM_260905-092006-193306-309821
2026-09-05T
09:20:35+0000
2.344 km
极远距离
1.481449E-6 低风险 0.38